[Iaude] MPEC L89: 2007 VX6 [a=2.26,e=0.61,i=41.2,H=20.79]
    mpec at cfa.harvard.edu 
    mpec at cfa.harvard.edu
       
    Sat Jun  8 10:13:08 EDT 2024
    
    
  
M.P.E.C. 2024-L89                                  Issued 2024 June 8, 14:11 UT
     The Minor Planet Electronic Circulars contain information on unusual
         minor planets, routine data on comets and natural satellites,
         and occasional editorial announcements.  They are published
    on behalf of Division F of the International Astronomical Union by the
          Minor Planet Center, Smithsonian Astrophysical Observatory,
                          Cambridge, MA 02138, U.S.A.
			  
             Prepared using the Tamkin Foundation Computer Network
                              MPC at CFA.HARVARD.EDU
            URL https://www.minorplanetcenter.net/    ISSN 1523-6714
                                    2007 VX6                                    
                           Revision to MPEC 2007-V35                            
Additional Observations:
     K07V06X  C2024 05 06.52664416 15 04.771-17 50 20.75         22.81GVEL089F52
     K07V06X  C2024 05 06.53381516 15 04.162-17 50 08.57         22.38GVEL089F52
     K07V06X  C2024 06 01.33418915 28 36.314-01 45 14.22         21.84GVEL089F51
     K07V06X  C2024 06 06.37615215 18 32.922+01 45 25.75         22.06wXEL089F51
     K07V06X  C2024 06 06.40098715 18 29.903+01 46 27.11         21.62wXEL089F51
     K07V06X  C2024 06 06.41805815 18 27.829+01 47 09.32         22.33wXEL089F51
Observer details:
F51 Pan-STARRS 1, Haleakala.  Observers J. Herman, T. Lowe, P. Minguez, A.
    Schultz, I. Smith.  Measurers K. Chambers, T. de Boer, J. Fairlamb, H.
    Gao, M. Huber, C.-C. Lin, E. Magnier, Y. Ramanjooloo, R. Wainscoat, R.
    Weryk.  1.8-m Ritchey-Chretien + CCD.
F52 Pan-STARRS 2, Haleakala.  Observers J. Herman, T. Lowe, P. Minguez, A.
    Schultz, I. Smith.  Measurers K. Chambers, T. de Boer, J. Fairlamb, H.
    Gao, M. Huber, C.-C. Lin, E. Magnier, Y. Ramanjooloo, R. Wainscoat, R.
    Weryk.  1.8-m Ritchey-Chretien + CCD.
First and last observations above in comparison with prediction:
Residuals in seconds of arc (or two decimals in degrees), reference and Delta-T
240506 F52 5.29+ 2.64+    240606 F51 5.28+ 4.90+    MPO130316   +7.71 days
Orbital elements:
2007 VX6                                                 Earth MOID = 0.0784 AU
Epoch 2024 Mar. 31.0 TT = JDT 2460400.5                 Veres                   
M 306.02894              (2000.0)            P               Q                  
n   0.28920306     Peri.  120.01617     +0.82127549     +0.21128399             
a   2.2646485      Node   233.57387     -0.21251182     +0.97534407             
e   0.6132650      Incl.   41.19724     +0.52947643     +0.06374180             
P   3.41           H   20.79          G   0.15           U   1                  
Residuals in seconds of arc
071103 G96  0.4-  0.3-    071104 G96  0.2+  0.3-    071116 H55  0.2-  0.0
071103 G96  0.2+  0.4+    071104 G96  0.1+  0.1-    071116 H55  0.2+  0.3-
071103 G96  0.2+  0.0     071104 G96  0.1+  0.4-    071119 474  0.3+  0.7+
071103 G96  0.0   1.0+    071104 G96  0.0   0.6-    071119 474  0.6-  0.9-
071103 G96  0.1-  0.2-    071105 G96  0.3+  0.2+    071119 474  0.2-  0.0
071103 G96  0.4-  0.0     071105 G96  0.1+  0.1+    071119 474  0.2+  0.1+
071103 G96  0.3-  0.4-    071105 G96  0.1+  0.1-    240506 F52  0.2+  0.3+
071103 G96  0.0   0.4-    071105 G96  0.0   0.0     240506 F52  0.3+  0.2-
071104 G96  0.3-  0.3-    071107 H55  0.2+  0.6+    240601 F51  0.1-  0.3-
071104 G96  0.2-  0.1-    071107 H55  0.1-  1.1-    240606 F51  0.1-  0.1+
071104 G96  0.3-  0.0     071107 H55  0.0   0.3+    240606 F51  0.0   0.0
071104 G96  0.0   0.1+    071116 H55  0.7-  0.2-    240606 F51  0.1+  0.1-
Ephemeris:
2007 VX6                 a,e,i = 2.26, 0.61, 41                  q = 0.8758
Date    TT    R. A. (2000) Decl.     Delta      r    Elong.  Phase     V
2024 05 09    16 11 34.1 -16 35 28   0.9602  1.9503   163.9     8.3    22.7
...
2024 05 24    15 45 17.8 -07 31 32   0.8299  1.8290   166.0     7.7    22.2
...
2024 06 01    15 29 16.6 -01 59 15   0.7935  1.7625   154.2    14.5    22.3
...
2024 06 07    15 17 20.0 +02 11 09   0.7808  1.7117   144.5    20.1    22.4
2024 06 08    15 15 23.7 +02 52 05   0.7798  1.7032   142.9    21.1    22.4
2024 06 09    15 13 28.8 +03 32 39   0.7791  1.6947   141.3    22.0    22.5
...
2024 06 15    15 02 34.7 +07 26 28   0.7807  1.6431   131.9    27.4    22.6
...
2024 06 23    14 50 07.0 +12 05 01   0.7952  1.5736   120.1    34.0    22.7
...
2024 07 08    14 34 45.0 +18 51 47   0.8427  1.4412   101.2    43.8    22.9
A. U. Tomatic                (C) Copyright 2024 MPC           M.P.E.C. 2024-L89
    
    
More information about the Iaude
mailing list